Retour au catalogue

PEGASUS R/B

ActifPO
NORAD 24286·ROCKET BODY·🇺🇸 United States

Lancé Aug 21, 1996 depuis Vandenberg Space Force Base

Loading…

Prochains Passages (prochaines 24 heures)

TLE

FraisSource: Space-Track

Époque: Sep 14, 2026, 00:11 UTC

1 24286U 96049B   26257.00775638  .00008725  00000-0  61237-3 0  9992
2 24286  82.9305 271.3915 1646453 344.5641  11.0408 12.03057800252161

Suivez PEGASUS R/B en temps réel avec AllMySat

Download on the App Store